SCP
0 0 0 0 0 0 0 0 0 0 0 0 0 0 0 0 0 0 0 0 0 0 0 0 0 0 0 0 0 0 0 0 0 0 0 0 0 0 0 0 0 0 0 0
0 0 0 0 -0 -0 0 0 0 0 0 -0 0 0 0 0 0 0 0 0 0 0 0 0 0 0 0 0 0 0 0 0 0 0 0 0 0 0 0 0 0 0 0 0
0 0 0 -0 -0 -0 0 0 0 0 0 0 0 0 0 0 0 0 0 0 0 0 0 0 0 0 0 0 0 0 0 0 0 0 0 0 0 0 0 0 0 0 0 0
0 -0 0 -0 0 0 0 -0 0 0 0 0 0 0 0 0 0 0 0 0 0 0 0 0 0 0 0 0 0 0 0 0 0 0 0 0 0 0 0 0 0 0 0 0
0 0 0 -0 0 -0 -0 0 0 0 0 0 0 0 0 0 0 0 0 0 0 0 0 0 0 0 0 0 0 0 0 0 0 0 0 0 0 0 0 0 -0 0 0 0
0 0 -0 0 0 0 0 -0 0 0 0 0 0 0 0 0 0 0 0 0 0 0 0 0 0 0 0 0 0 0 0 0 0 0 0 0 0 0 0 0 0 0 0 0
0 0 0 0 -0 -0 0 0 -0 0 0 0 0 0 0 0 0 0 0 0 0 0 0 0 0 0 0 0 0 0 0 0 0 0 0 0 0 -0 -0 0 0 0 0 0
0 0 0 -0 0 0 0 0 0 0 0 0 0 0 0 0 0 0 0 0 0 0 0 0 0 0 0 0 0 0 0 0 0 0 0 0 0 0 0 0 0 0 0 0
0 0 0 -0 0 -0 0 0 0 0 -0 0 0 -0 -0 0 0 0 0 0 0 0 0 0 0 0 0 0 0 0 0 0 0 0 0 0 0 0 0 0 0 0 0 0
0 0 0 0 0 0 -0 -0 -0 -0 -0 -0 -0 -0 0 0 -0 0 0 0 0 0 0 0 0 0 0 0 0 0 0 0 0 0 0 0 0 0 0 0 0 0 0 0
0 0 0 0 0 0 0 -0 0 -0 -0 -0 -0 -0 0 0 0 0 0 0 0 0 0 0 0 0 0 0 0 0 0 0 0 0 0 0 0 0 0 0 0 0 0 0
0 0 0 0 0 0 -0 -0 -0 -0 0 -0 -0 -0 -0 0 0 -0 -0 0 -0 -0 0 0 0 0 0 0 0 0 0 0 0 0 0 0 0 0 0 0 0 0 0 0
0 0 0 0 0 -0 0 0 0 -0 -0 -0 -0 -0 0 0 -0 0 0 -0 0 -0 -0 -0 0 -0 -0 -0 0 0 0 0 0 0 0 0 0 0 0 0 0 0 0 0
0 0 0 0 0 -0 0 0 0 -0 -0 -0 -0 -0 0 0 0 0 0 -0 -0 0 -0 -0 -0 -0 0 0 0 0 0 0 0 0 0 0 0 0 0 0 0 0 0 0
0 0 0 0 0 0 0 -0 0 0 -0 -0 -0 -0 -0 -0 -0 0 -0 -0 -0 0 0 0 0 -0 0 -0 0 0 0 0 0 0 0 0 0 0 0 0 0 0 0 0
0 0 0 0 0 0 0 -0 -0 -0 -0 -0 -0 -0 -0 -0 -0 0 0 0 0 -0 -0 -0 -0 -0 0 0 0 0 0 0 0 0 0 0 0 0 0 0 0 0 0 0
0 0 0 0 0 0 0 0 -0 -0 -0 -0 -0 -0 0 -0 0 -0 -0 -0 -0 -0 -0 -0 -0 0 0 0 0 0 0 0 0 0 0 0 0 0 0 0 0 0 0 0
0 0 0 0 0 0 0 0 0 0 0 0 -0 0 -0 -0 -0 -0 -0 0 -0 -0 0 0 0 0 0 0 0 0 0 0 0 0 0 0 0 0 0 0 0 0 0 0
0 0 0 0 0 0 0 0 0 0 0 -0 -0 -0 -0 -0 -0 0 0 -0 -0 0 0 0 0 0 0 0 0 0 0 0 0 0 0 0 0 0 0 0 0 0 -0 -0
0 0 0 0 0 0 0 0 0 0 0 0 0 -0 -0 -0 -0 0 0 0 0 0 0 0 0 0 0 0 0 0 0 0 0 0 0 0 0 0 0 0 0 -0 -0 -0
0 0 0 0 0 0 0 0 0 0 -0 -0 -0 -0 -0 -0 -0 -0 0 0 0 0 0 0 0 0 0 0 0 0 0 0 0 0 0 0 0 0 0 0 0 -0 -0 -0
0 0 0 0 0 0 0 0 0 0 0 -0 -0 -0 -0 -0 -0 -0 0 0 0 0 0 0 0 0 0 0 0 0 0 0 0 0 0 -0 -0 -0 0 0 0 0 -0 -0
-0 0 0 0 0 0 0 0 0 0 0 0 0 -0 -0 -0 0 0 0 0 0 0 0 0 0 0 0 0 0 0 0 0 0 0 0 -0 -0 -0 -0 0 0 0 -0 -0
0 -0 0 0 0 0 0 0 0 0 0 0 0 0 0 0 0 0 0 0 0 0 0 0 0 0 0 0 0 0 0 0 0 0 0 -0 -0 -0 -0 0 0 0 0 -0
0 0 0 0 0 0 0 0 0 0 0 0 0 0 0 0 0 0 0 0 0 0 0 0 0 0 0 0 0 0 0 0 0 0 0 -0 -0 -0 -0 0 0 0 -0 -0
0 0 0 0 0 0 0 0 0 0 0 0 0 0 0 0 0 0 0 0 0 0 0 0 0 0 0 0 0 0 0 0 0 0 0 0 -0 -0 -0 0 0 0 0 0
0 0 0 0 0 0 0 0 0 0 0 0 0 0 0 0 0 0 0 0 0 0 0 0 0 0 0 0 0 0 0 0 0 0 0 0 -0 -0 0 0 0 0 0 0
Wind_Speed_500mb
15 29 31 34 36 41 32 30 19 46 36 31 21 18 36 48 50 34 39 62 77 96 94 90 86 82 75 71 65 64 59 61 59 52 52 47 43 37 32 27 20 15 17 21
21 25 26 33 35 35 31 38 42 49 55 9 26 28 32 41 48 35 47 60 75 90 95 95 87 86 78 67 67 71 63 67 66 63 58 53 45 40 36 27 19 19 23 26
11 19 22 11 10 10 17 27 26 31 32 12 24 32 42 27 33 34 30 36 48 79 95 92 81 86 77 72 70 67 71 72 70 66 62 56 50 44 35 26 23 25 27 32
9 11 5 3 21 23 33 35 27 37 34 42 37 53 27 21 26 36 41 37 39 52 56 68 71 68 63 64 69 65 71 73 72 66 60 56 50 40 28 24 26 27 32 37
6 5 16 4 12 24 32 52 29 27 34 49 55 55 5 23 15 17 17 21 24 35 41 51 55 57 58 62 61 62 61 61 57 66 62 43 40 20 18 25 33 36 38 41
6 7 8 4 13 65 46 25 14 42 42 50 60 27 3 23 29 29 23 17 25 35 45 49 48 53 57 52 53 47 38 45 40 34 12 16 10 16 27 25 31 39 42 44
11 9 12 7 55 59 13 8 54 53 59 51 24 5 24 34 49 50 58 56 53 57 63 61 57 61 64 61 62 52 39 20 23 8 14 19 20 21 28 34 39 42 44 39
6 7 12 62 51 22 33 78 73 60 42 38 12 24 33 37 72 74 83 83 80 79 80 73 69 69 70 62 45 35 29 21 13 2 8 15 28 23 29 35 39 35 33 35
5 9 45 60 55 70 46 21 53 29 15 36 33 34 41 55 71 74 84 84 80 81 72 69 61 53 48 42 30 21 15 11 5 2 8 16 22 22 26 27 30 34 36 38
11 6 40 48 72 61 53 56 61 77 58 56 61 55 52 63 74 81 84 81 75 71 64 57 61 53 49 39 36 31 23 18 15 9 9 14 13 20 19 22 27 31 34 38
12 17 44 36 71 51 49 57 72 73 70 60 55 51 48 55 69 73 78 70 68 66 57 38 57 48 40 35 32 28 20 20 17 13 8 10 14 18 20 22 26 31 36 42
6 31 19 35 54 49 54 64 65 63 63 56 58 53 50 58 60 66 63 59 60 52 45 49 50 51 43 39 26 28 29 28 26 22 21 22 20 19 16 20 21 24 29 34
13 36 33 38 43 43 40 39 38 40 47 55 51 51 58 58 52 53 51 59 50 46 49 46 49 50 41 37 37 40 38 37 37 34 30 30 31 31 34 31 29 32 30 33
34 29 39 43 40 42 45 45 44 46 48 50 51 52 53 56 58 56 54 46 38 41 43 41 44 45 41 36 33 36 34 33 36 36 34 33 34 34 36 41 44 42 33 30
25 24 31 31 33 34 35 40 42 42 42 45 48 49 46 50 56 57 59 51 44 39 37 38 39 40 35 30 32 32 34 36 37 36 37 39 38 37 38 38 39 44 44 37
17 19 23 25 30 30 30 30 32 30 32 37 43 43 40 41 45 54 57 54 49 46 41 40 37 35 30 32 35 37 38 34 34 39 42 42 44 44 42 42 44 45 45 44
14 18 22 23 25 25 30 31 29 25 27 33 37 38 38 36 41 48 53 51 48 50 49 47 43 34 33 39 42 46 48 44 41 39 41 43 45 45 44 43 44 44 44 43
13 11 13 20 21 21 25 33 32 28 29 30 32 35 38 37 41 43 45 42 45 49 45 38 39 40 38 41 45 51 55 48 45 41 38 37 39 41 43 44 45 47 51 51
11 13 17 21 20 22 22 25 31 27 26 28 30 35 37 35 34 34 32 34 35 32 32 31 28 25 28 34 38 45 48 42 38 37 38 38 40 45 49 51 51 52 55 59
5 12 15 18 21 16 18 25 26 22 23 25 31 33 35 34 33 31 29 30 30 34 36 37 34 31 37 44 46 48 47 44 43 44 45 46 47 49 52 56 57 58 59 61
15 12 14 17 19 16 15 19 19 21 21 20 26 28 24 25 24 25 29 31 33 41 39 34 34 41 48 52 53 53 50 48 47 48 49 50 51 53 56 60 63 62 63 62
20 8 11 11 14 20 19 19 21 24 22 20 19 20 20 20 21 25 31 31 37 46 41 41 44 48 55 59 63 65 59 52 51 50 50 52 54 56 58 61 65 66 66 63
23 9 12 8 6 6 4 5 6 8 11 13 14 15 15 17 19 23 26 32 37 43 42 43 45 49 56 64 70 70 67 60 54 51 51 52 53 56 59 62 66 67 70 66
13 15 12 19 17 21 19 19 15 9 7 5 6 9 12 15 16 22 21 25 31 41 45 42 45 50 57 64 71 72 70 65 58 54 52 52 54 56 59 63 68 69 71 68
20 10 18 17 19 27 28 26 23 20 18 19 9 13 12 17 18 20 22 20 25 34 39 42 46 51 57 63 71 74 72 69 62 57 54 55 57 59 61 64 68 72 75 72
14 21 25 22 24 30 31 23 13 11 19 16 11 16 13 17 19 18 19 18 21 27 33 40 46 51 54 62 69 74 73 71 66 60 56 55 58 60 63 66 69 74 77 75
19 17 21 21 20 24 26 23 19 10 8 16 16 11 12 18 16 18 20 18 20 25 31 38 44 49 53 58 67 73 74 72 68 62 59 57 59 62 65 68 70 75 79 80
Wind_Direction_500mb
274 264 257 262 264 286 272 251 248 276 281 287 307 310 315 319 320 259 206 191 194 187 186 189 191 189 189 193 201 210 204 212 207 205 201 200 198 200 205 214 225 251 281 301
285 280 269 264 255 258 269 279 265 271 269 315 316 324 327 328 331 266 226 210 203 196 194 195 193 194 198 202 198 195 210 209 205 204 203 203 203 207 211 221 245 268 280 293
281 330 309 289 293 274 282 290 273 269 285 315 330 331 323 332 332 318 295 259 233 211 206 202 203 202 203 204 204 206 207 210 210 207 205 206 207 211 220 231 246 263 282 294
278 320 336 150 32 349 326 294 325 316 313 324 324 318 318 336 329 317 304 280 252 241 226 213 213 209 210 209 209 210 212 215 216 209 208 205 205 209 213 237 263 282 290 299
298 242 288 322 15 352 324 300 306 328 328 327 321 322 301 2 356 335 324 298 254 219 214 210 208 208 205 206 210 208 205 206 206 196 189 180 185 205 251 285 294 296 297 302
296 285 273 248 323 336 315 278 21 338 323 323 326 307 7 49 70 75 87 108 149 171 170 180 170 182 188 180 182 175 157 151 141 136 158 185 259 273 280 279 285 299 304 304
276 267 277 8 338 328 285 294 329 319 309 313 319 126 101 93 93 96 97 104 118 123 120 118 133 154 144 132 117 110 109 88 98 145 162 270 260 277 296 301 300 296 300 303
323 303 317 347 336 328 290 300 296 292 297 311 53 77 93 86 91 91 91 90 97 108 106 107 110 117 110 107 107 107 102 104 103 300 318 286 305 310 301 296 296 295 296 304
279 265 303 332 333 4 15 355 334 269 310 76 54 48 68 65 76 82 83 87 87 85 86 93 90 88 87 88 91 96 86 67 45 47 292 303 286 297 293 290 285 290 294 301
303 285 340 330 346 355 20 33 37 67 75 75 72 59 50 70 74 73 77 77 79 79 68 75 84 78 77 69 70 66 52 73 61 49 13 299 307 288 294 300 303 307 310 309
266 324 328 349 359 18 32 42 53 63 67 65 69 62 59 65 70 72 72 70 67 70 72 60 73 76 76 70 62 57 59 40 45 38 339 322 326 307 314 307 310 315 309 304
324 346 326 334 6 34 47 49 55 65 66 64 73 78 77 74 73 69 71 71 70 67 65 64 66 66 60 60 60 56 51 36 29 27 16 7 351 343 339 324 318 312 306 299
319 340 349 3 25 40 45 45 49 60 75 81 79 72 67 67 66 71 69 64 64 67 66 62 63 67 65 59 56 56 47 36 28 21 10 5 2 356 348 349 349 343 338 332
43 24 23 31 31 53 64 69 75 80 75 69 64 62 66 71 70 66 63 65 68 66 64 62 64 64 57 51 49 46 37 31 26 22 12 2 358 356 352 349 344 342 341 333
53 45 31 44 50 51 56 59 63 66 65 63 59 63 63 67 62 54 50 46 51 58 62 59 58 56 47 36 32 27 19 17 16 14 12 6 0 359 356 351 343 342 343 340
46 52 44 44 43 43 48 55 60 71 68 61 53 56 65 77 76 61 58 58 61 63 61 58 57 53 43 37 32 26 18 10 8 7 6 3 3 358 353 351 350 348 342 336
22 35 33 32 30 45 48 44 46 63 66 58 53 49 53 67 75 66 62 59 59 59 57 53 52 46 37 28 21 16 11 8 7 4 2 0 358 355 350 349 348 345 342 341
40 52 40 13 29 39 43 42 41 51 56 50 51 53 56 74 70 62 56 50 46 45 42 36 31 25 17 11 9 5 2 4 3 359 356 355 356 353 352 350 346 346 348 348
43 36 32 17 7 15 32 30 31 41 46 52 56 58 64 82 74 65 54 47 43 37 26 16 10 3 1 3 2 355 357 359 359 358 357 356 356 358 357 354 350 349 351 353
340 360 359 2 10 8 18 24 27 48 59 57 63 68 70 69 63 54 41 31 29 23 11 10 16 14 6 1 357 357 360 0 0 360 359 357 357 358 357 356 354 352 352 352
62 41 28 25 27 49 58 42 58 78 82 77 70 69 65 61 54 44 34 27 27 17 19 27 22 14 16 15 13 7 4 3 1 359 358 357 356 356 357 357 355 353 352 351
20 43 24 37 59 70 81 83 82 84 90 90 83 69 59 49 37 29 26 25 25 19 23 27 24 23 21 19 15 13 9 5 2 359 359 358 357 356 356 356 355 354 353 350
22 8 22 359 337 339 35 77 49 52 68 69 63 55 42 31 22 19 21 25 21 21 24 27 25 21 18 16 15 12 10 6 3 1 359 358 357 356 355 356 355 354 353 351
26 48 32 359 8 336 298 284 274 272 289 312 356 358 11 13 2 3 1 10 17 21 24 25 20 17 14 12 11 9 8 6 4 2 359 358 358 357 357 356 356 355 354 353
46 48 15 2 350 346 335 319 314 264 281 275 287 318 326 343 335 343 346 345 3 16 19 19 17 14 11 8 7 7 7 6 4 1 360 358 358 358 359 358 358 357 356 355
6 359 353 354 358 359 359 2 27 24 325 331 308 329 310 315 323 335 341 327 348 3 9 12 13 10 7 6 4 5 5 4 3 3 1 359 359 359 360 359 359 359 358 356
348 345 338 344 352 12 7 8 339 338 43 355 348 338 313 313 330 323 325 323 333 346 351 1 5 3 0 360 2 2 3 3 3 2 2 0 0 0 0 360 359 360 0 360
Wind_Speed_850mb
15 29 31 34 36 41 32 30 19 46 36 31 21 18 36 48 50 34 39 62 77 96 94 90 86 82 75 71 65 64 59 61 59 52 52 47 43 37 32 27 20 15 17 21
21 25 26 33 35 35 31 38 42 49 55 9 26 28 32 41 48 35 47 60 75 90 95 95 87 86 78 67 67 71 63 67 66 63 58 53 45 40 36 27 19 19 23 26
11 19 22 11 10 10 17 27 26 31 32 12 24 32 42 27 33 34 30 36 48 79 95 92 81 86 77 72 70 67 71 72 70 66 62 56 50 44 35 26 23 25 27 32
9 11 5 3 21 23 33 35 27 37 34 42 37 53 27 21 26 36 41 37 39 52 56 68 71 68 63 64 69 65 71 73 72 66 60 56 50 40 28 24 26 27 32 37
6 5 16 4 12 24 32 52 29 27 34 49 55 55 5 23 15 17 17 21 24 35 41 51 55 57 58 62 61 62 61 61 57 66 62 43 40 20 18 25 33 36 38 41
6 7 8 4 13 65 46 25 14 42 42 50 60 27 3 23 29 29 23 17 25 35 45 49 48 53 57 52 53 47 38 45 40 34 12 16 10 16 27 25 31 39 42 44
11 9 12 7 55 59 13 8 54 53 59 51 24 5 24 34 49 50 58 56 53 57 63 61 57 61 64 61 62 52 39 20 23 8 14 19 20 21 28 34 39 42 44 39
6 7 12 62 51 22 33 78 73 60 42 38 12 24 33 37 72 74 83 83 80 79 80 73 69 69 70 62 45 35 29 21 13 2 8 15 28 23 29 35 39 35 33 35
5 9 45 60 55 70 46 21 53 29 15 36 33 34 41 55 71 74 84 84 80 81 72 69 61 53 48 42 30 21 15 11 5 2 8 16 22 22 26 27 30 34 36 38
11 6 40 48 72 61 53 56 61 77 58 56 61 55 52 63 74 81 84 81 75 71 64 57 61 53 49 39 36 31 23 18 15 9 9 14 13 20 19 22 27 31 34 38
12 17 44 36 71 51 49 57 72 73 70 60 55 51 48 55 69 73 78 70 68 66 57 38 57 48 40 35 32 28 20 20 17 13 8 10 14 18 20 22 26 31 36 42
6 31 19 35 54 49 54 64 65 63 63 56 58 53 50 58 60 66 63 59 60 52 45 49 50 51 43 39 26 28 29 28 26 22 21 22 20 19 16 20 21 24 29 34
13 36 33 38 43 43 40 39 38 40 47 55 51 51 58 58 52 53 51 59 50 46 49 46 49 50 41 37 37 40 38 37 37 34 30 30 31 31 34 31 29 32 30 33
34 29 39 43 40 42 45 45 44 46 48 50 51 52 53 56 58 56 54 46 38 41 43 41 44 45 41 36 33 36 34 33 36 36 34 33 34 34 36 41 44 42 33 30
25 24 31 31 33 34 35 40 42 42 42 45 48 49 46 50 56 57 59 51 44 39 37 38 39 40 35 30 32 32 34 36 37 36 37 39 38 37 38 38 39 44 44 37
17 19 23 25 30 30 30 30 32 30 32 37 43 43 40 41 45 54 57 54 49 46 41 40 37 35 30 32 35 37 38 34 34 39 42 42 44 44 42 42 44 45 45 44
14 18 22 23 25 25 30 31 29 25 27 33 37 38 38 36 41 48 53 51 48 50 49 47 43 34 33 39 42 46 48 44 41 39 41 43 45 45 44 43 44 44 44 43
13 11 13 20 21 21 25 33 32 28 29 30 32 35 38 37 41 43 45 42 45 49 45 38 39 40 38 41 45 51 55 48 45 41 38 37 39 41 43 44 45 47 51 51
11 13 17 21 20 22 22 25 31 27 26 28 30 35 37 35 34 34 32 34 35 32 32 31 28 25 28 34 38 45 48 42 38 37 38 38 40 45 49 51 51 52 55 59
5 12 15 18 21 16 18 25 26 22 23 25 31 33 35 34 33 31 29 30 30 34 36 37 34 31 37 44 46 48 47 44 43 44 45 46 47 49 52 56 57 58 59 61
15 12 14 17 19 16 15 19 19 21 21 20 26 28 24 25 24 25 29 31 33 41 39 34 34 41 48 52 53 53 50 48 47 48 49 50 51 53 56 60 63 62 63 62
20 8 11 11 14 20 19 19 21 24 22 20 19 20 20 20 21 25 31 31 37 46 41 41 44 48 55 59 63 65 59 52 51 50 50 52 54 56 58 61 65 66 66 63
23 9 12 8 6 6 4 5 6 8 11 13 14 15 15 17 19 23 26 32 37 43 42 43 45 49 56 64 70 70 67 60 54 51 51 52 53 56 59 62 66 67 70 66
13 15 12 19 17 21 19 19 15 9 7 5 6 9 12 15 16 22 21 25 31 41 45 42 45 50 57 64 71 72 70 65 58 54 52 52 54 56 59 63 68 69 71 68
20 10 18 17 19 27 28 26 23 20 18 19 9 13 12 17 18 20 22 20 25 34 39 42 46 51 57 63 71 74 72 69 62 57 54 55 57 59 61 64 68 72 75 72
14 21 25 22 24 30 31 23 13 11 19 16 11 16 13 17 19 18 19 18 21 27 33 40 46 51 54 62 69 74 73 71 66 60 56 55 58 60 63 66 69 74 77 75
19 17 21 21 20 24 26 23 19 10 8 16 16 11 12 18 16 18 20 18 20 25 31 38 44 49 53 58 67 73 74 72 68 62 59 57 59 62 65 68 70 75 79 80
Wind_Direction_850mb
274 264 257 262 264 286 272 251 248 276 281 287 307 310 315 319 320 259 206 191 194 187 186 189 191 189 189 193 201 210 204 212 207 205 201 200 198 200 205 214 225 251 281 301
285 280 269 264 255 258 269 279 265 271 269 315 316 324 327 328 331 266 226 210 203 196 194 195 193 194 198 202 198 195 210 209 205 204 203 203 203 207 211 221 245 268 280 293
281 330 309 289 293 274 282 290 273 269 285 315 330 331 323 332 332 318 295 259 233 211 206 202 203 202 203 204 204 206 207 210 210 207 205 206 207 211 220 231 246 263 282 294
278 320 336 150 32 349 326 294 325 316 313 324 324 318 318 336 329 317 304 280 252 241 226 213 213 209 210 209 209 210 212 215 216 209 208 205 205 209 213 237 263 282 290 299
298 242 288 322 15 352 324 300 306 328 328 327 321 322 301 2 356 335 324 298 254 219 214 210 208 208 205 206 210 208 205 206 206 196 189 180 185 205 251 285 294 296 297 302
296 285 273 248 323 336 315 278 21 338 323 323 326 307 7 49 70 75 87 108 149 171 170 180 170 182 188 180 182 175 157 151 141 136 158 185 259 273 280 279 285 299 304 304
276 267 277 8 338 328 285 294 329 319 309 313 319 126 101 93 93 96 97 104 118 123 120 118 133 154 144 132 117 110 109 88 98 145 162 270 260 277 296 301 300 296 300 303
323 303 317 347 336 328 290 300 296 292 297 311 53 77 93 86 91 91 91 90 97 108 106 107 110 117 110 107 107 107 102 104 103 300 318 286 305 310 301 296 296 295 296 304
279 265 303 332 333 4 15 355 334 269 310 76 54 48 68 65 76 82 83 87 87 85 86 93 90 88 87 88 91 96 86 67 45 47 292 303 286 297 293 290 285 290 294 301
303 285 340 330 346 355 20 33 37 67 75 75 72 59 50 70 74 73 77 77 79 79 68 75 84 78 77 69 70 66 52 73 61 49 13 299 307 288 294 300 303 307 310 309
266 324 328 349 359 18 32 42 53 63 67 65 69 62 59 65 70 72 72 70 67 70 72 60 73 76 76 70 62 57 59 40 45 38 339 322 326 307 314 307 310 315 309 304
324 346 326 334 6 34 47 49 55 65 66 64 73 78 77 74 73 69 71 71 70 67 65 64 66 66 60 60 60 56 51 36 29 27 16 7 351 343 339 324 318 312 306 299
319 340 349 3 25 40 45 45 49 60 75 81 79 72 67 67 66 71 69 64 64 67 66 62 63 67 65 59 56 56 47 36 28 21 10 5 2 356 348 349 349 343 338 332
43 24 23 31 31 53 64 69 75 80 75 69 64 62 66 71 70 66 63 65 68 66 64 62 64 64 57 51 49 46 37 31 26 22 12 2 358 356 352 349 344 342 341 333
53 45 31 44 50 51 56 59 63 66 65 63 59 63 63 67 62 54 50 46 51 58 62 59 58 56 47 36 32 27 19 17 16 14 12 6 0 359 356 351 343 342 343 340
46 52 44 44 43 43 48 55 60 71 68 61 53 56 65 77 76 61 58 58 61 63 61 58 57 53 43 37 32 26 18 10 8 7 6 3 3 358 353 351 350 348 342 336
22 35 33 32 30 45 48 44 46 63 66 58 53 49 53 67 75 66 62 59 59 59 57 53 52 46 37 28 21 16 11 8 7 4 2 0 358 355 350 349 348 345 342 341
40 52 40 13 29 39 43 42 41 51 56 50 51 53 56 74 70 62 56 50 46 45 42 36 31 25 17 11 9 5 2 4 3 359 356 355 356 353 352 350 346 346 348 348
43 36 32 17 7 15 32 30 31 41 46 52 56 58 64 82 74 65 54 47 43 37 26 16 10 3 1 3 2 355 357 359 359 358 357 356 356 358 357 354 350 349 351 353
340 360 359 2 10 8 18 24 27 48 59 57 63 68 70 69 63 54 41 31 29 23 11 10 16 14 6 1 357 357 360 0 0 360 359 357 357 358 357 356 354 352 352 352
62 41 28 25 27 49 58 42 58 78 82 77 70 69 65 61 54 44 34 27 27 17 19 27 22 14 16 15 13 7 4 3 1 359 358 357 356 356 357 357 355 353 352 351
20 43 24 37 59 70 81 83 82 84 90 90 83 69 59 49 37 29 26 25 25 19 23 27 24 23 21 19 15 13 9 5 2 359 359 358 357 356 356 356 355 354 353 350
22 8 22 359 337 339 35 77 49 52 68 69 63 55 42 31 22 19 21 25 21 21 24 27 25 21 18 16 15 12 10 6 3 1 359 358 357 356 355 356 355 354 353 351
26 48 32 359 8 336 298 284 274 272 289 312 356 358 11 13 2 3 1 10 17 21 24 25 20 17 14 12 11 9 8 6 4 2 359 358 358 357 357 356 356 355 354 353
46 48 15 2 350 346 335 319 314 264 281 275 287 318 326 343 335 343 346 345 3 16 19 19 17 14 11 8 7 7 7 6 4 1 360 358 358 358 359 358 358 357 356 355
6 359 353 354 358 359 359 2 27 24 325 331 308 329 310 315 323 335 341 327 348 3 9 12 13 10 7 6 4 5 5 4 3 3 1 359 359 359 360 359 359 359 358 356
348 345 338 344 352 12 7 8 339 338 43 355 348 338 313 313 330 323 325 323 333 346 351 1 5 3 0 360 2 2 3 3 3 2 2 0 0 0 0 360 359 360 0 360